| time (UTC) | temp C | wind direction | speed KPH | gust KPH | rain 1hr cm | rain 24hr cm | rain mn cm | humidity % | barometer mb |
| 20260505124520 | 6 | 290 | 0.0 | 0.0 | 0.00 | 1.68 | 0.00 | 87 | 1011.7 |
| 20260505123024 | 6 | 277 | 0.0 | 1.6 | 0.00 | 1.68 | 0.00 | 87 | 1011.7 |
| 20260505121513 | 6 | 271 | 0.0 | 0.0 | 0.00 | 1.68 | 0.00 | 87 | 1011.8 |
| 20260505120014 | 6 | 280 | 0.0 | 0.0 | 0.00 | 1.68 | 0.00 | 87 | 1011.7 |
| 20260505114520 | 6 | 288 | 0.0 | 6.4 | 0.00 | 1.68 | 0.00 | 87 | 1011.6 |
| 20260505113022 | 6 | 280 | 0.0 | 8.0 | 0.00 | 1.68 | 0.00 | 87 | 1011.5 |
| 20260505111525 | 6 | 276 | 0.0 | 1.6 | 0.00 | 1.68 | 0.00 | 86 | 1011.6 |
| 20260505101521 | 6 | 274 | 0.0 | 0.0 | 0.00 | 1.68 | 0.00 | 85 | 1012.0 |
| 20260505100028 | 6 | 285 | 0.0 | 1.6 | 0.00 | 1.68 | 0.00 | 85 | 1012.0 |
| 20260505093028 | 6 | 312 | 0.0 | 1.6 | 0.00 | 1.68 | 0.00 | 88 | 1011.8 |
| 20260505091527 | 6 | 276 | 0.0 | 0.0 | 0.00 | 1.68 | 0.00 | 89 | 1012.1 |
| 20260505090026 | 6 | 278 | 0.0 | 3.2 | 0.00 | 1.68 | 0.00 | 88 | 1012.1 |
| 20260505084526 | 5 | 256 | 0.0 | 1.6 | 0.00 | 1.68 | 0.00 | 89 | 1012.6 |
| 20260505083014 | 5 | 260 | 0.0 | 0.0 | 0.00 | 1.68 | 0.00 | 90 | 1012.7 |
| 20260505081527 | 5 | 274 | 0.0 | 0.0 | 0.00 | 1.68 | 0.00 | 89 | 1012.7 |
| 20260505080026 | 5 | 291 | 0.0 | 1.6 | 0.00 | 1.68 | 0.00 | 87 | 1012.8 |
| 20260505074526 | 6 | 314 | 0.0 | 1.6 | 0.00 | 1.68 | 0.00 | 84 | 1012.8 |
| 20260505041512 | 6 | 267 | 1.6 | 12.9 | 0.13 | 1.52 | 1.52 | 89 | 1012.6 |
| 20260505040016 | 6 | 273 | 0.0 | 6.4 | 0.13 | 1.47 | 1.47 | 90 | 1012.4 |
| 20260505034518 | 6 | 283 | 0.0 | 1.6 | 0.05 | 1.42 | 1.42 | 90 | 1012.7 |
| 20260505033020 | 6 | 270 | 0.0 | 3.2 | 0.05 | 1.40 | 1.40 | 89 | 1012.1 |
| 20260505031509 | 5 | 253 | 0.0 | 1.6 | 0.10 | 1.40 | 1.40 | 89 | 1012.0 |
| 20260505030025 | 5 | 287 | 0.0 | 6.4 | 0.20 | 1.37 | 1.37 | 88 | 1011.8 |
| 20260505024518 | 5 | 252 | 0.0 | 3.2 | 0.51 | 1.37 | 1.37 | 90 | 1011.8 |
| 20260505023021 | 6 | 249 | 0.0 | 1.6 | 0.84 | 1.32 | 1.32 | 90 | 1012.0 |
| 20260505021520 | 5 | 264 | 0.0 | 4.8 | 0.94 | 1.30 | 1.30 | 90 | 1012.0 |
| 20260505020014 | 6 | 144 | 3.2 | 17.7 | 0.84 | 1.17 | 1.17 | 88 | 1012.4 |
| 20260505014517 | 7 | 187 | 0.0 | 9.7 | 0.53 | 0.86 | 0.86 | 87 | 1013.0 |
| 20260505013018 | 8 | 264 | 1.6 | 6.4 | 0.18 | 0.51 | 0.51 | 82 | 1012.7 |
| 20260505011522 | 9 | 294 | 0.0 | 8.0 | 0.03 | 0.36 | 0.36 | 76 | 1011.9 |
| 20260505010021 | 10 | 263 | 0.0 | 4.8 | 0.00 | 0.33 | 0.33 | 75 | 1011.3 |
| 20260505004523 | 10 | 284 | 0.0 | 16.1 | 0.00 | 0.33 | 0.33 | 77 | 1011.0 |
| 20260505003019 | 10 | 281 | 1.6 | 14.5 | 0.00 | 0.33 | 0.33 | 77 | 1010.7 |
| 20260504221518 | 10 | 218 | 0.0 | 11.3 | 0.15 | 0.15 | 0.15 | 80 | 1010.9 |
| 20260504220022 | 11 | 304 | 1.6 | 11.3 | 0.13 | 0.13 | 0.13 | 72 | 1011.0 |
| 20260504214535 | 14 | 78 | 1.6 | 9.7 | 0.00 | 0.00 | 0.00 | 59 | 1010.4 |
| 20260504213013 | 13 | 271 | 1.6 | 9.7 | 0.00 | 0.00 | 0.00 | 67 | 1011.1 |
| 20260504211518 | 13 | 253 | 0.0 | 19.3 | 0.00 | 0.00 | 0.00 | 63 | 1011.3 |
| 20260504210022 | 13 | 252 | 0.0 | 19.3 | 0.00 | 0.00 | 0.00 | 58 | 1011.2 |
| 20260504204506 | 16 | 288 | 8.0 | 16.1 | 0.00 | 0.00 | 0.00 | 50 | 1011.0 |
| 20260504203012 | 18 | 301 | 1.6 | 17.7 | 0.00 | 0.00 | 0.00 | 45 | 1010.9 |
| 20260504201515 | 17 | 333 | 3.2 | 17.7 | 0.00 | 0.00 | 0.00 | 49 | 1011.2 |
| 20260504200028 | 17 | 293 | 1.6 | 16.1 | 0.00 | 0.00 | 0.00 | 48 | 1011.5 |
| 20260504194522 | 18 | 275 | 1.6 | 14.5 | 0.00 | 0.00 | 0.00 | 46 | 1011.7 |
| 20260504193020 | 17 | 301 | 1.6 | 12.9 | 0.00 | 0.00 | 0.00 | 48 | 1012.0 |
| 20260504191514 | 18 | 138 | 0.0 | 8.0 | 0.00 | 0.00 | 0.00 | 46 | 1012.1 |
| 20260504190020 | 17 | 330 | 0.0 | 16.1 | 0.00 | 0.00 | 0.00 | 47 | 1012.1 |
| 20260504184522 | 16 | 342 | 0.0 | 16.1 | 0.00 | 0.00 | 0.00 | 50 | 1012.0 |
| 20260504183028 | 15 | 284 | 3.2 | 12.9 | 0.00 | 0.00 | 0.00 | 54 | 1012.3 |
| 20260504181511 | 14 | 274 | 0.0 | 8.0 | 0.00 | 0.00 | 0.00 | 58 | 1012.6 |
| 20260504180016 | 13 | 280 | 0.0 | 3.2 | 0.00 | 0.00 | 0.00 | 59 | 1012.8 |
| 20260504174520 | 12 | 289 | 0.0 | 3.2 | 0.00 | 0.00 | 0.00 | 63 | 1013.1 |
| 20260504173024 | 11 | 277 | 0.0 | 3.2 | 0.00 | 0.00 | 0.00 | 68 | 1013.2 |
| 20260504171538 | 10 | 289 | 0.0 | 3.2 | 0.00 | 0.00 | 0.00 | 68 | 1013.0 |